リニア彗星

197P/LINEAR (2003)

English version
Home page
Updated on March 7, 2020

---------------------------------------------------------------------

・ プロフィール

符号 197P/2003 KV2
発見日 2003年5月23日
発見光度 18.4等
発見者 Lincoln Laboratory Near-Earth Asteroid Research project

・ 写真集

・ 軌道要素

Epoch 2003 July 20.0 TT = JDT 2452840.5
T 2003 July 10.84758 TT                                 Kobayashi
q   1.0630199            (2000.0)            P               Q
n   0.20290915     Peri.  188.74167     -0.26990879     +0.87808941
a   2.8681485      Node    66.40774     -0.85531838     -0.03017958
e   0.6293707      Incl.   25.54003     -0.44224396     -0.47754390
P   4.86
From 304 observations 2003 May 23-2013 Sept. 25, mean residual 0".7.
     Nongravitational parameters A1 = +0.00, A2 = +0.0018.

・ 星図

・ 光度変化

        m1 = 17.5 + 5 logΔ + 10.0 log r

---------------------------------------------------------------------

軌道要素はM.P.E.C. 2015-M77に掲載されたものです。
星図は StellaNavigator Ver.2.0 for Windows (アストロアーツ 編著 / アスキー出版局刊) で作成したものです。
光度グラフはComet for Windowsで作成したものです。

---------------------------------------------------------------------

Copyright(C) Seiichi Yoshida (comet@aerith.net). All rights reserved.